{"data":{"norad_id":55316,"epoch":"2026-05-25T02:52:02.856864Z","epoch_age_seconds":68729,"freshness":"FRESH","line1":"1 55316U 23010AZ  26145.11947751  .00000569  00000+0  55509-4 0  9996","line2":"2 55316  69.9984 171.6465 0003919 273.1832  86.8879 14.98320491186096","mean_motion":14.98320491,"eccentricity":0.0003919,"inclination_deg":69.9984,"raan_deg":171.6465,"arg_perigee_deg":273.1832,"mean_anomaly_deg":86.8879,"bstar":5.5509e-5,"rev_number":18609,"period_min":96.107609062926,"perigee_km":569.36150477988,"apogee_km":574.80908901619,"semimajor_km":6950.222296898,"source":"CELESTRAK","updated_at":"2026-05-25T13:38:17.758517Z"}}